User: anonymous   Login
Location: Unspecified
(0.0000°N, 0.0000°E)
Time: 01:28:24
(UTC+00:00)
Language:

PAYLOAD B - Orbit

View from above orbital plane
View from above orbital plane
View from above satellite
View from above satellite

Ground track
Ground track

The orbit data is extracted from the following two-line orbital elements,

1 27431U 02024B   17266.55714167 +.00000034 +00000-0 +44978-4 0  9996
2 27431 099.0406 239.0000 0015509 169.8293 190.3193 14.09632668790208
Epoch (UTC): 23 September 2017 13:22:17
Eccentricity: 0.0015509
inclination: 99.0406°
perigee height: 849 km
apogee height: 872 km
right ascension of ascending node: 239.0000°
argument of perigee: 169.8293°
revolutions per day: 14.09632668
mean anomaly at epoch: 190.3193°
orbit number at epoch: 79020

The dashed part of the orbit path shows where the satellite is in the earth's shadow,  

DLR